Location: Burleson Alternative School
(32.5290°N, 97.3406°W)
Time: 02:38:49
(UTC+00:00)

Courier 1B Rocket - Pass Details

Date: 12 November 2024
Orbit: 920 x 1201 km, 28.2° (Epoch: 03 December)

Event Time Altitude Azimuth Distance (km) Brightness Sun altitude
Rises 01:47:53 0° 269° (W) 3,592 9.2 -29.0°
Reaches altitude 10° 01:50:35 10° 264° (W) 2,626 8.2 -29.6°
Enters shadow 01:56:28 52° 196° (SSW) 1,124 5.3 -30.9°
